Weather History for McKinney, TX

Change the Weather History Date:

Thursday, March 20, 2014

  Actual Average (KADS) Record (KADS)
Temperature  
Mean Temperature 52 °F -  
Max Temperature 71 °F 65 °F 87 °F (2004)
Min Temperature 35 °F 48 °F 37 °F (2001)
Degree Days  
Heating Degree Days 12    
Growing Degree Days 2 (Base 50)    
Moisture  
Dew Point 32 °F    
Average Humidity 52    
Maximum Humidity 89    
Minimum Humidity 20    
Precipitation  
Precipitation 0.00 in - - ()
Sea Level Pressure  
Sea Level Pressure 30.16 in    
Wind  
Wind Speed 3 mph (SSE)    
Max Wind Speed 12 mph    
Max Gust Speed -    
Visibility 10 miles    
Events      
Averages and records for this station are not official NWS values.
T = Trace of Precipitation, MM = Missing Value Source: NWS Daily Summary

Daily Weather History Graph

Daily Weather History Graph

Search for Another Location

Airport:

Trip Planner

Search our weather history database for the weather conditions in past years. The results will help you decide how hot, cold, wet, or windy it might be!

Date:

Astronomy

Mar. 20, 2014 Rise Set
Actual Time 7:30 AM CDT 7:37 PM CDT
Civil Twilight 7:05 AM CDT 8:02 PM CDT
Nautical Twilight 6:36 AM CDT 8:31 PM CDT
Astronomical Twilight 6:07 AM CDT 9:00 PM CDT
Moon 11:45 PM CDT (3/20) 9:49 AM CDT (3/20)
Length of Visible Light 12h 57m
Length of Day
12h 07m
Waning Gibbous, 84% of the Moon is Illuminated
Mar 20
Waning Gibbous
Mar 23
Last Quarter
Mar 30
New
Apr 7
First Quarter
Apr 15
Full

Hourly Weather History & Observations

Time (CDT) Temp. Windchill Dew Point Humidity Pressure Visibility Wind Dir Wind Speed Gust Speed Precip Events Conditions
12:53 AM 43.0 °F - 35.1 °F 74% 30.25 in 10.0 mi Calm Calm - N/A   Clear
1:53 AM 42.1 °F - 34.0 °F 73% 30.24 in 10.0 mi Calm Calm - N/A   Clear
2:53 AM 39.0 °F 34.8 °F 34.0 °F 82% 30.24 in 10.0 mi NNW 5.8 mph - N/A   Clear
3:53 AM 39.9 °F 35.8 °F 33.1 °F 77% 30.23 in 10.0 mi NNW 5.8 mph - N/A   Clear
4:53 AM 39.0 °F - 33.1 °F 79% 30.22 in 10.0 mi Calm Calm - N/A   Clear
5:53 AM 37.0 °F - 30.9 °F 79% 30.23 in 10.0 mi Calm Calm - N/A   Clear
6:53 AM 35.1 °F - 32.0 °F 89% 30.23 in 10.0 mi Calm Calm - N/A   Clear
7:53 AM 36.0 °F - 32.0 °F 86% 30.23 in 10.0 mi Calm Calm - N/A   Clear
8:53 AM 42.1 °F - 36.0 °F 79% 30.24 in 10.0 mi Calm Calm - N/A   Clear
9:53 AM 53.1 °F - 35.1 °F 50% 30.25 in 10.0 mi South 5.8 mph - N/A   Clear
10:53 AM 59.0 °F - 32.0 °F 36% 30.25 in 10.0 mi SSE 10.4 mph - N/A   Clear
11:53 AM 61.0 °F - 32.0 °F 34% 30.23 in 10.0 mi SSE 4.6 mph - N/A   Clear
12:53 PM 64.0 °F - 28.9 °F 27% 30.21 in 10.0 mi South 4.6 mph - N/A   Clear
1:53 PM 66.0 °F - 27.0 °F 23% 30.18 in 10.0 mi South 8.1 mph - N/A   Clear
2:53 PM 68.0 °F - 26.1 °F 21% 30.13 in 10.0 mi South 4.6 mph - N/A   Clear
3:53 PM 69.1 °F - 26.1 °F 20% 30.10 in 10.0 mi Calm Calm - N/A   Clear
4:53 PM 70.0 °F - 27.0 °F 20% 30.07 in 10.0 mi SSE 8.1 mph - N/A   Clear
5:53 PM 70.0 °F - 28.0 °F 21% 30.05 in 10.0 mi SSE 11.5 mph - N/A   Clear
6:53 PM 66.9 °F - 30.9 °F 26% 30.04 in 10.0 mi SSE 10.4 mph - N/A   Clear
7:53 PM 61.0 °F - 33.1 °F 35% 30.04 in 10.0 mi SSE 10.4 mph - N/A   Clear
8:53 PM 57.9 °F - 33.1 °F 39% 30.03 in 10.0 mi SSE 8.1 mph - N/A   Clear
9:53 PM 52.0 °F - 36.0 °F 54% 30.03 in 10.0 mi SSE 6.9 mph - N/A   Clear
10:53 PM 51.1 °F - 36.0 °F 56% 30.03 in 10.0 mi SSE 4.6 mph - N/A   Clear
11:53 PM 48.9 °F - 35.1 °F 59% 30.04 in 10.0 mi Calm Calm - N/A   Clear